Flag for U.S.A. Weather past 2 weeks in Youngstown, Ohio, U.S.A.

Now
66 °F

Fog.


Feels Like: 66 °F
Forecast: 65 / 83 °F
Wind: 7 mph from Northeast

Location: Youngstown-Warren Regional Airport

Current Time: Aug 23, 2014 at 9:40:16 AM

Latest Report: Aug 23, 2014 at 8:51 AM


Visibility: 1 mi

Pressure: 30.02 "Hg

Humidity: 96%

Dew point: 65 °F

Location of YoungstownLocation

Historic Weather in Youngstown — Graph

°F

Youngstown temperature yesterday

Maximum temperature yesterday: 83 °F (at 4:51 PM)
Minimum temperature yesterday: 67 °F (at 4:51 AM)
Average temperature yesterday: 73 °F

Past Weeks' High & Low Weather Summary

 TemperatureHumidityPressure
High84 °F (Aug 19, 3:51 PM)97% (Aug 9, 1:51 AM)30.16 "Hg (Aug 9, 1:51 AM)
Low48 °F (Aug 15, 5:51 AM)37% (Aug 16, 3:51 PM)29.71 "Hg (Aug 12, 6:51 PM)
Average67 °F76%29.96 "Hg
* Reported Aug 8 7:51 AM — Aug 23 7:51 AM, Youngstown, Weather by CustomWeather, © 2014

Note: Actual official high and low records may vary slightly from our data, if they occured in-between our weather recording intervals... More about our weather records

Advertising

Youngstown weather history for previous 24 hours

 ConditionsComfort  
Time TempWeatherWind HumidityBarometerVisibility
7:51 AM
Aug 23
65 °FFog.6 mph94%30.02 "Hg0 mi
7:04 AM64 °FFog.8 mph94%30.02 "Hg1 mi
6:51 AM65 °FFog.6 mph91%29.99 "Hg3 mi
5:51 AM65 °FFog.6 mph94%29.98 "Hg4 mi
4:51 AM66 °FFog.7 mph93%29.97 "Hg5 mi
3:51 AM66 °FFog.No wind93%29.96 "Hg5 mi
2:51 AM66 °FFog.No wind93%29.96 "Hg4 mi
1:51 AM68 °FFog.No wind90%29.98 "Hg6 mi
12:51 AM68 °FFog.5 mph90%29.99 "Hg6 mi
11:51 PM
Aug 22
69 °FFog.No wind90%29.99 "Hg6 mi
10:51 PM70 °FPassing clouds.5 mph90%29.99 "Hg8 mi
9:51 PM71 °FPassing clouds.7 mph90%29.98 "Hg10 mi
8:51 PM74 °FScattered clouds.9 mph85%29.96 "Hg10 mi
7:51 PM76 °FScattered clouds.8 mph80%29.95 "Hg10 mi
6:51 PM79 °FScattered clouds.10 mph74%29.93 "Hg10 mi
5:51 PM81 °FBroken clouds.8 mph67%29.93 "Hg10 mi
4:51 PM83 °FBroken clouds.No wind63%29.93 "Hg10 mi
3:51 PM81 °FPartly sunny.No wind62%29.93 "Hg10 mi
2:51 PM80 °FPartly sunny.No wind67%29.95 "Hg10 mi
1:51 PM80 °FPartly sunny.No wind64%29.97 "Hg10 mi
12:51 PM78 °FPartly sunny.No wind76%29.98 "Hg10 mi
11:51 AM74 °FFog.No wind88%29.98 "Hg4 mi
10:51 AM72 °FLight rain. Fog.No wind87%30.00 "Hg2 mi
9:51 AM71 °FLight rain. Fog.5 mph90%30.00 "Hg3 mi
Weather by CustomWeather, © 2014

See weather overviewHow to use our weather pages